DateTimeUTC,F1_A11,F1_S11,BsB_S11,BsG_S11,BsR_S11,BbsB_S11,BbsG_S11,BbsR_S11,BaB_A11,BaG_A11,BaR_A11,Tu_S11,T_S11,Uu_S11,U_S11,P_S11,T1_A11
2021-06-23T08:00:00Z,00040200,20000000,,,,,,,0000.19,0000.17,0000.16,17.5,24.3,04.6,03.0,0676.8,31.0
2021-06-23T08:01:00Z,00040200,20000000,,,,,,,-000.24,-000.03,0000.02,17.5,24.3,04.6,03.0,0676.8,31.0
2021-06-23T08:02:00Z,00040200,20000000,,,,,,,0000.21,0000.13,-000.08,17.5,24.3,04.6,03.0,0676.8,31.0
2021-06-23T08:03:00Z,00040200,60000000,,,,,,,0001.15,0001.11,0000.77,17.5,24.3,04.6,03.0,0676.8,31.0
2021-06-23T08:04:00Z,00040200,40000000,0000.65,0000.98,0000.12,0000.07,-000.09,-000.01,0000.81,0000.97,0000.60,17.6,24.1,04.8,03.2,0677.7,31.0
2021-06-23T08:05:00Z,00040200,00000000,0001.35,0001.02,0000.42,-000.55,0000.19,0000.05,0000.59,0000.31,0000.29,17.6,24.1,04.9,03.3,0677.8,31.0
2021-06-23T08:06:00Z,00040200,00000000,0001.01,0001.07,0000.20,-000.17,0000.33,-000.16,-000.01,0000.09,0000.03,17.6,24.1,04.9,03.3,0677.8,31.0
2021-06-23T08:07:00Z,00040200,00000000,0000.76,0000.85,0000.49,-000.01,0000.19,0000.12,-000.40,-000.23,-000.17,17.6,24.1,04.8,03.3,0677.8,31.0
2021-06-23T08:08:00Z,00040200,00000000,0001.55,0001.01,0000.50,0000.12,0000.25,0000.16,0000.43,-000.12,0000.55,17.6,24.0,04.7,03.2,0677.8,31.0
2021-06-23T08:09:00Z,00040200,00000000,0001.67,0000.81,0000.53,0000.16,0000.21,-000.09,0000.46,0000.66,0000.29,17.6,24.1,04.6,03.1,0677.8,31.0
2021-06-23T08:10:00Z,00040200,00000000,0001.61,0000.95,0000.52,0000.10,0000.15,-000.01,0000.88,0000.92,0000.56,17.6,24.0,04.6,03.1,0677.8,31.0
2021-06-23T08:11:00Z,00040200,00000000,0001.39,0001.13,0000.51,-000.12,0000.26,-000.01,0000.45,0000.22,0000.06,17.6,24.0,04.7,03.2,0677.9,31.0
2021-06-23T08:12:00Z,00040200,00000000,0001.12,0000.95,0000.48,-000.00,0000.17,0000.06,0000.46,0000.54,0000.61,17.6,24.0,04.6,03.1,0677.9,31.0
2021-06-23T08:13:00Z,00040200,00000000,0001.34,0001.01,0000.35,0000.52,0000.32,0000.31,0000.13,0000.55,0000.22,17.6,24.0,04.6,03.1,0677.9,31.0
2021-06-23T08:14:00Z,00040200,00000000,0001.03,0000.86,0000.54,-000.06,0000.14,0000.08,0001.29,0000.70,0000.71,17.6,24.0,04.8,03.2,0677.9,31.0
2021-06-23T08:15:00Z,00040200,00000000,0001.38,0000.72,0000.20,0000.49,0000.05,-000.05,0000.82,0000.83,0000.80,17.6,24.0,04.9,03.3,0677.9,31.0
2021-06-23T08:16:00Z,00040200,00000000,0001.17,0001.22,0000.32,0000.45,0000.48,0000.07,0000.12,0000.58,0000.18,17.7,24.0,05.0,03.3,0677.9,31.0
2021-06-23T08:17:00Z,00040200,00000000,0000.78,0001.11,0000.71,-000.31,0000.31,0000.43,0000.44,-000.28,0000.20,17.6,24.0,04.9,03.3,0677.9,31.0
2021-06-23T08:18:00Z,00040200,00000000,0001.32,0000.82,0000.59,0000.01,0000.27,-000.21,0000.08,0000.46,0000.29,17.6,24.0,04.9,03.3,0677.9,31.0
2021-06-23T08:19:00Z,00040200,00000000,0001.36,0001.14,0000.54,-000.05,0000.35,0000.11,0000.41,0000.59,0000.24,17.7,24.0,04.8,03.2,0677.9,31.0
2021-06-23T08:20:00Z,00040200,00000000,0000.91,0001.28,0000.40,0000.06,-000.04,0000.27,0000.75,0000.53,0000.30,17.7,24.0,04.8,03.3,0677.9,31.0
2021-06-23T08:21:00Z,00040200,00000000,0001.38,0000.74,0000.42,0000.10,0000.08,0000.09,0000.63,0000.63,0000.56,17.7,24.0,04.8,03.2,0677.9,31.0
2021-06-23T08:22:00Z,00040200,00000000,0001.19,0000.74,0000.48,0000.44,0000.07,-000.07,0000.98,0000.59,0000.36,17.7,24.0,04.9,03.3,0678.0,31.0
2021-06-23T08:23:00Z,00040200,00000000,0000.47,0000.61,0000.46,-000.44,0000.39,0000.19,-000.22,-000.17,0000.13,17.7,24.0,04.9,03.3,0677.9,31.0
2021-06-23T08:24:00Z,00040200,00000000,0001.49,0000.94,0000.45,-000.41,0000.38,0000.08,0000.31,0000.65,0000.73,17.7,24.0,04.9,03.3,0678.0,31.0
2021-06-23T08:25:00Z,00040200,00000000,0000.99,0000.82,0000.55,0000.03,-000.01,0000.18,0000.50,0000.55,0000.27,17.7,24.0,04.9,03.3,0677.9,31.0
2021-06-23T08:26:00Z,00040200,00000000,0000.87,0000.78,0000.35,0000.16,0000.18,0000.04,0000.90,0000.88,0000.45,17.7,24.0,05.0,03.4,0677.9,31.0
2021-06-23T08:27:00Z,00040200,00000000,0000.82,0000.92,0000.36,0000.13,0000.17,0000.35,0000.52,-000.10,0000.05,17.7,24.0,04.9,03.3,0677.9,31.1
2021-06-23T08:28:00Z,00040200,00000000,0000.79,0001.02,0000.47,0000.06,0000.24,0000.35,-000.03,0000.40,0000.38,17.7,24.0,04.9,03.3,0677.9,31.0
2021-06-23T08:29:00Z,00040200,00000000,0001.67,0000.67,0000.30,0000.09,0000.02,-000.02,0000.49,0000.48,0000.24,17.7,24.0,04.8,03.3,0677.9,31.0
2021-06-23T08:30:00Z,00040200,00000000,0001.44,0000.71,-000.02,0000.55,0000.02,-000.01,0000.98,0000.58,0000.46,17.7,24.0,04.9,03.3,0677.9,31.0
2021-06-23T08:31:00Z,00040200,00000000,0000.78,0000.92,0000.48,-000.27,0000.18,0000.19,0000.27,-000.07,0000.31,17.7,24.0,04.9,03.3,0677.8,31.0
2021-06-23T08:32:00Z,00040200,00000000,0000.22,0000.74,0000.45,-000.11,0000.18,0000.11,0000.37,0000.85,0000.50,17.7,24.0,05.1,03.4,0677.9,31.0
2021-06-23T08:33:00Z,00040200,00000000,0001.02,0000.60,0000.13,-000.01,0000.18,-000.06,0000.23,0000.09,-000.13,17.7,24.0,05.0,03.4,0677.9,31.0
2021-06-23T08:34:00Z,00040200,00000000,0000.51,0000.41,0000.24,-000.06,0000.04,0000.17,0000.32,0000.30,0000.39,17.7,24.0,05.1,03.4,0677.9,31.0
2021-06-23T08:35:00Z,00040200,00000000,0000.48,0000.41,0000.53,0000.28,0000.16,0000.46,0000.65,0000.72,0000.33,17.7,24.0,05.1,03.5,0677.9,31.0
2021-06-23T08:36:00Z,00040200,00000000,0001.01,0000.40,0000.15,0000.16,0000.23,0000.28,0000.28,-000.21,0000.07,17.7,24.0,05.1,03.4,0677.9,31.0
2021-06-23T08:37:00Z,00040200,00000000,0000.14,0000.61,0000.26,-000.53,0000.30,0000.02,0000.18,0000.42,0000.11,17.7,24.0,05.0,03.4,0677.9,31.0
2021-06-23T08:38:00Z,00040200,00000000,0000.93,0000.37,0000.08,0000.40,0000.07,-000.01,0000.59,0000.75,0000.55,17.7,24.0,05.0,03.4,0677.9,31.0
2021-06-23T08:39:00Z,00040200,00000000,0000.73,0000.62,-000.10,-000.24,0000.02,-000.05,-000.18,-000.27,0000.17,17.7,24.0,05.0,03.4,0677.9,31.0
2021-06-23T08:40:00Z,00040200,00000000,0000.83,0000.21,0000.08,0000.17,0000.24,-000.25,0000.09,-000.26,-000.11,17.7,24.0,05.0,03.4,0677.9,31.0
2021-06-23T08:41:00Z,00040200,00000000,-000.03,0000.47,0000.28,0000.19,-000.11,-000.05,0000.45,0000.63,0000.47,17.7,24.0,05.0,03.4,0677.9,31.0
2021-06-23T08:42:00Z,00040200,00000000,-000.02,0000.34,0000.17,0000.16,-000.01,0000.25,0000.14,-000.14,-000.19,17.7,24.0,04.9,03.3,0677.9,31.0
2021-06-23T08:43:00Z,00040200,00000000,0000.16,0000.29,-000.01,-000.11,-000.05,-000.03,-000.15,0000.07,0000.04,17.7,24.0,04.9,03.3,0677.9,31.0
2021-06-23T08:44:00Z,00040200,00000000,0000.38,0000.50,-000.22,-000.03,0000.27,-000.09,-000.01,0000.16,0000.38,17.7,24.0,04.9,03.3,0677.9,31.0
2021-06-23T08:45:00Z,00040200,00000000,0000.46,0000.44,-000.03,-000.23,-000.09,0000.25,0000.08,0000.27,-000.13,17.7,24.0,04.8,03.3,0677.9,31.0
2021-06-23T08:46:00Z,00040200,00000000,0000.46,0000.38,-000.35,0000.41,0000.30,-000.04,0000.44,0000.40,0000.15,17.7,24.0,04.8,03.3,0677.8,31.0
2021-06-23T08:47:00Z,00040200,00000000,0000.28,0000.39,0000.07,0000.30,0000.18,0000.11,-000.11,-000.21,0000.24,17.7,24.0,04.9,03.3,0677.9,31.0
2021-06-23T08:48:00Z,00040200,00000000,-000.16,0000.04,0000.06,0000.03,0000.06,-000.10,0000.15,0000.17,-000.01,17.7,24.0,04.9,03.3,0677.9,31.0
2021-06-23T08:49:00Z,00040200,00000000,0000.84,0000.41,-000.13,-000.42,0000.04,-000.07,0000.23,0000.27,0000.24,17.7,24.0,04.8,03.3,0677.8,31.0
2021-06-23T08:50:00Z,00040200,00000000,0000.11,0000.46,0000.19,0000.21,-000.05,0000.04,0000.41,0000.23,0000.34,17.7,24.0,04.9,03.3,0677.9,31.0
2021-06-23T08:51:00Z,00040200,00000000,-000.18,0000.38,0000.18,-000.01,0000.18,0000.16,0000.33,0000.37,0000.06,17.7,24.0,04.9,03.3,0677.8,31.0
2021-06-23T08:52:00Z,00040200,00000000,0001.37,0000.67,0000.13,-000.12,0000.27,-000.30,0000.86,0000.80,0000.53,17.7,24.0,05.0,03.4,0677.8,31.0
2021-06-23T08:53:00Z,00040200,00000000,0000.06,0000.25,0000.20,-000.12,-000.07,0000.27,0000.12,0000.34,-000.01,17.7,24.0,05.0,03.4,0677.8,31.0
2021-06-23T08:54:00Z,00040200,00000000,0000.81,0000.59,0000.69,-000.12,0000.30,-000.07,0000.45,0000.29,0000.73,17.7,24.0,05.2,03.5,0677.8,31.0
2021-06-23T08:55:00Z,00040200,00000000,0001.06,0000.57,0000.32,-000.37,0000.29,0000.12,0000.23,0000.14,0000.02,17.7,24.0,05.1,03.4,0677.8,31.0
2021-06-23T08:56:00Z,00040200,00000000,0000.23,0000.79,0000.31,-000.01,-000.00,0000.24,0000.45,0000.57,0000.09,17.7,24.0,05.1,03.5,0677.8,31.0
2021-06-23T08:57:00Z,00040200,40000000,,,,,,,-000.28,-000.37,-000.12,17.8,24.0,04.8,03.3,0677.7,31.0
2021-06-23T08:58:00Z,00040200,60000000,,,,,,,0000.15,-000.26,0000.11,17.5,24.1,05.0,03.3,0676.8,31.0
2021-06-23T08:59:00Z,00040200,20000000,,,,,,,-000.40,0000.02,-000.30,17.5,24.2,04.9,03.3,0676.8,31.0
